HB9BTL-13 Weather Reports


time (UTC)temp
C
wind
direction
speed
KPH
gust
KPH
rain 1hr
cm
rain 24hr
cm
rain mn
cm
humidity
%
barometer
mb
20260506164554 13 0.0 0.0 0.00 0.00 0.00 96 1009.4
20260506163049 13 0.0 0.0 0.00 0.00 0.00 93 1009.5
20260506161543 13 0.0 0.0 0.00 0.00 0.00 95 1009.4
20260506160038 13 0.0 0.0 0.00 0.00 0.00 97 1009.4
20260506154532 13 0.0 0.0 0.00 0.00 0.00 98 1009.5
20260506153027 13 0.0 0.0 0.00 0.00 0.00 10 1009.4
20260506151521 12 0.0 0.0 0.00 0.00 0.00 10 1009.4
20260506150017 13 0.0 0.0 0.00 0.00 0.00 10 1009.5
20260506144511 13 0.0 0.0 0.00 0.00 0.00 10 1009.3
20260506143006 13 0.0 0.0 0.00 0.00 0.00 10 1009.3
20260506141500 13 0.0 0.0 0.00 0.00 0.00 10 1009.3
20260506135955 12 0.0 0.0 0.00 0.00 0.00 10 1009.3
20260506134449 12 0.0 0.0 0.00 0.00 0.00 10 1009.3
20260506132944 12 0.0 0.0 0.00 0.00 0.00 10 1009.3
20260506131438 12 0.0 0.0 0.00 0.00 0.00 10 1009.3
20260506125933 12 0.0 0.0 0.00 0.00 0.00 10 1009.2
20260506124427 11 0.0 0.0 0.00 0.00 0.00 10 1009.1
20260506122923 11 0.0 0.0 0.00 0.00 0.00 10 1008.9
20260506121417 12 0.0 0.0 0.00 0.00 0.00 10 1008.9
20260506115912 12 0.0 0.0 0.00 0.00 0.00 10 1008.5
20260506114406 13 0.0 0.0 0.00 0.00 0.00 10 1008.1
20260506112901 14 0.0 0.0 0.00 0.00 0.00 96 1007.5
20260506111355 14 0.0 0.0 0.00 0.00 0.00 96 1007.3
20260506105850 14 0.0 0.0 0.00 0.00 0.00 96 1007.3
20260506104344 15 0.0 0.0 0.00 0.00 0.00 93 1007.3
20260506102839 15 0.0 0.0 0.00 0.00 0.00 92 1007.3
20260506101333 15 0.0 0.0 0.00 0.00 0.00 93 1007.4
20260506095828 15 0.0 0.0 0.00 0.00 0.00 95 1007.2
20260506094323 15 0.0 0.0 0.00 0.00 0.00 96 1007.3
20260506092818 14 0.0 0.0 0.00 0.00 0.00 98 1007.2
20260506091312 14 0.0 0.0 0.00 0.00 0.00 99 1007.1
20260506085807 14 0.0 0.0 0.00 0.00 0.00 98 1007.1
20260506084302 14 0.0 0.0 0.00 0.00 0.00 94 1007.0
20260506082756 14 0.0 0.0 0.00 0.00 0.00 99 1007.1
20260506081251 13 0.0 0.0 0.00 0.00 0.00 99 1007.0
20260506072734 13 0.0 0.0 0.00 0.00 0.00 10 1007.0
20260506071230 13 0.0 0.0 0.00 0.00 0.00 10 1007.1
20260506061208 12 0.0 0.0 0.00 0.00 0.00 10 1007.0
20260506051146 12 0.0 0.0 0.00 0.00 0.00 10 1007.2
20260506044135 11 0.0 0.0 0.00 0.00 0.00 10 1007.2
20260506042630 11 0.0 0.0 0.00 0.00 0.00 10 1007.3
20260506041124 11 0.0 0.0 0.00 0.00 0.00 10 1007.4
20260506035619 12 0.0 0.0 0.00 0.00 0.00 10 1007.4
20260506034114 12 0.0 0.0 0.00 0.00 0.00 10 1007.5
20260506032609 12 0.0 0.0 0.00 0.00 0.00 10 1007.7
20260506031104 12 0.0 0.0 0.00 0.00 0.00 10 1007.8
20260506025558 12 0.0 0.0 0.00 0.00 0.00 10 1008.0
20260506024053 12 0.0 0.0 0.00 0.00 0.00 10 1008.1
20260506022547 12 0.0 0.0 0.00 0.00 0.00 10 1007.9
20260506021042 12 0.0 0.0 0.00 0.00 0.00 10 1008.2
20260506015536 12 0.0 0.0 0.00 0.00 0.00 10 1008.5
20260506014031 12 0.0 0.0 0.00 0.00 0.00 10 1008.6
20260506012525 12 0.0 0.0 0.00 0.00 0.00 10 1008.9
20260506011021 12 0.0 0.0 0.00 0.00 0.00 10 1008.9
20260506005517 12 0.0 0.0 0.00 0.00 0.00 10 1009.0
20260506002504 12 0.0 0.0 0.00 0.00 0.00 10 1009.2
20260506000959 12 0.0 0.0 0.00 0.00 0.00 10 1009.5
20260505233948 13 0.0 0.0 0.00 0.00 0.00 10 1009.4
20260505232442 13 0.0 0.0 0.00 0.00 0.00 10 1009.7
20260505230940 13 0.0 0.0 0.00 0.00 0.00 10 1009.7
20260505225433 13 0.0 0.0 0.00 0.00 0.00 10 1009.8
20260505223927 13 0.0 0.0 0.00 0.00 0.00 10 1009.8
20260505222421 13 0.0 0.0 0.00 0.00 0.00 10 1009.8
20260505215414 13 0.0 0.0 0.00 0.00 0.00 10 1010.0
20260505213905 13 0.0 0.0 0.00 0.00 0.00 10 1010.0
20260505210854 13 0.0 0.0 0.00 0.00 0.00 10 1010.1
20260505205349 13 0.0 0.0 0.00 0.00 0.00 10 1010.2
20260505200835 13 0.0 0.0 0.00 0.00 0.00 10 1009.9
20260505195327 13 0.0 0.0 0.00 0.00 0.00 10 1009.8
20260505193826 13 0.0 0.0 0.00 0.00 0.00 10 1009.8
20260505190813 14 0.0 0.0 0.00 0.00 0.00 10 1009.4
20260505185305 14 0.0 0.0 0.00 0.00 0.00 10 1009.2
20260505183806 15 0.0 0.0 0.00 0.00 0.00 10 1009.1
20260505180751 15 0.0 0.0 0.00 0.00 0.00 10 1009.1
20260505173741 15 0.0 0.0 0.00 0.00 0.00 10 1009.4
20260505172233 15 0.0 0.0 0.00 0.00 0.00 10 1009.2
20260505165228 15 0.0 0.0 0.00 0.00 0.00 10 1009.0